Powrót do katalogu

STARLINK-30268

AktywnyŁącznośćVLEO
NORAD 57531·PAYLOAD·🇺🇸 United States

Wystrzelony Aug 8, 2023 z Vandenberg Space Force Base

Loading…

Następne Przeloty (najbliższe 24 godziny)

TLE

ŚwieżeSource: CelesTrak SupGP

Epoka: Sep 14, 2026, 21:14 UTC

1 57531C 23115L   26257.88520833 -.00018637  00000+0 -67475-3 0  2577
2 57531  43.0038  13.5152 0001479 268.0738  28.2224 15.27601218    17

Śledź STARLINK-30268 w czasie rzeczywistym z AllMySat

Download on the App Store